GFSFLT1_sfc_thetae_000.txt.gz
Theta_e
289 289 287 288 288 288 288 288 288 287 287 286 286 285 285 282 282 282 281 280 279 279 279 278 278 278 277 277 277 277 277 278
290 289 288 287 287 287 288 287 286 286 287 286 285 285 284 282 281 280 280 279 279 279 278 277 277 277 276 276 276 276 275 275
292 290 288 287 286 287 288 287 288 287 287 285 285 284 283 282 281 280 280 279 279 278 277 277 276 276 276 275 275 273 273 274
291 292 292 290 289 288 288 288 288 286 285 284 283 283 283 282 280 279 279 278 277 277 277 276 276 275 275 275 274 273 274 273
293 293 292 292 291 288 288 288 287 285 284 284 283 283 283 282 280 279 278 277 277 277 276 275 275 274 274 274 273 273 273 273
293 294 294 290 290 290 290 288 287 286 284 284 284 283 282 279 279 278 278 277 276 275 274 274 274 274 274 274 272 271 271 272
292 291 291 293 293 289 289 287 285 285 284 284 282 281 280 278 278 277 276 275 275 274 273 272 274 278 278 275 272 272 271 271
290 292 291 293 292 289 288 286 283 284 284 282 281 279 278 277 276 275 275 274 273 272 272 271 272 279 280 277 273 272 272 272
290 291 292 293 291 289 284 283 284 284 283 280 279 278 276 275 275 275 274 273 273 271 272 271 272 280 281 278 274 273 272 272
291 291 290 288 287 285 280 280 280 281 281 280 279 277 275 275 275 274 273 273 272 272 271 270 271 281 281 279 273 273 272 273
290 289 289 288 283 280 278 277 278 279 279 278 278 277 275 275 274 274 273 273 272 270 271 271 270 280 280 278 272 270 271 272
288 288 289 286 281 281 276 277 276 276 274 273 274 274 273 273 273 272 272 271 271 269 269 270 269 275 280 280 272 270 269 270
285 286 288 287 281 282 280 277 272 273 272 272 272 273 273 270 270 270 270 269 268 267 267 269 269 271 278 279 276 275 268 269
284 284 286 287 282 280 283 274 271 273 273 272 270 271 271 270 269 268 269 269 267 267 267 267 268 269 277 279 279 277 271 271
278 279 281 284 286 284 284 276 273 273 272 271 270 269 269 269 269 268 268 268 268 268 267 267 267 269 273 274 275 276 274 272
273 273 273 277 281 285 285 276 274 273 271 270 270 268 268 269 269 269 270 271 269 269 269 268 267 269 273 271 268 268 269 260
269 270 271 273 274 276 282 276 275 272 270 269 269 268 268 268 267 274 273 275 276 275 272 271 273 274 275 275 275 275 272 256
266 267 267 267 268 270 273 277 275 274 272 269 269 267 267 266 266 266 272 275 277 276 275 274 274 276 277 277 277 275 267 254
264 263 263 264 265 267 270 274 275 273 273 270 268 267 267 267 267 268 268 269 271 276 274 276 277 278 278 276 273 264 259 253
260 261 261 262 263 267 270 273 275 272 271 269 267 267 267 267 268 268 269 270 270 271 274 276 278 277 276 272 261 258 256 252

GFSFLT1_sfc_thetae_003.txt.gz
Theta_e
290 289 287 287 287 287 287 287 287 287 288 287 287 287 286 283 283 283 283 281 280 280 280 279 279 279 279 278 278 278 278 278
292 291 289 288 287 288 287 286 286 286 287 287 286 287 285 283 283 283 282 280 280 280 279 279 279 278 278 277 277 277 277 277
292 291 291 289 288 288 289 287 288 288 288 287 286 285 284 283 282 283 281 280 280 279 279 279 279 278 278 276 277 276 275 275
292 292 293 293 290 288 288 288 288 287 286 285 285 284 284 284 282 281 281 280 280 279 279 278 278 277 277 277 276 276 276 275
289 290 291 293 293 291 290 289 287 285 285 285 285 285 285 285 282 281 281 279 279 279 279 278 278 277 277 276 275 275 275 275
288 289 290 291 293 293 293 290 286 286 286 286 286 286 285 284 281 281 280 280 279 278 278 277 277 277 276 276 274 273 272 272
287 288 289 290 290 290 290 290 286 287 286 287 286 284 284 284 281 280 279 278 278 277 276 276 277 281 281 276 273 273 272 271
287 288 289 289 288 288 287 287 288 286 287 286 282 282 282 281 280 279 278 277 277 276 276 275 276 281 282 279 274 273 272 271
289 288 288 289 288 287 286 286 284 285 286 281 282 283 280 279 278 278 278 277 276 276 275 275 275 282 282 280 274 273 272 272
286 287 288 287 287 285 284 284 282 281 282 280 280 280 277 278 277 277 277 276 276 275 274 274 274 282 283 280 273 273 272 273
283 284 285 285 287 285 284 284 282 280 279 277 276 275 277 277 276 276 276 275 275 274 274 274 273 282 283 279 273 271 271 272
280 280 282 285 284 284 284 283 283 278 274 272 273 274 276 276 275 274 274 274 273 272 272 272 273 279 283 282 273 271 271 271
278 279 279 279 281 281 281 284 283 279 274 274 271 272 274 275 273 273 273 271 271 270 270 271 272 278 283 283 277 276 270 270
275 273 275 276 276 275 276 279 283 282 280 276 275 273 274 272 271 271 271 270 269 269 269 269 270 274 282 283 280 278 271 272
272 271 270 272 273 273 274 277 276 278 279 277 273 272 272 272 271 271 270 270 270 269 269 269 269 271 276 278 279 277 274 275
270 269 268 269 270 270 271 272 272 274 277 276 273 272 271 271 271 271 272 273 271 271 271 269 268 270 275 277 277 275 273 267
267 266 266 266 266 267 267 268 268 269 272 275 273 271 271 270 269 275 276 276 278 277 274 273 275 276 277 279 280 277 275 265
264 264 263 263 263 264 265 265 265 266 269 274 272 271 269 269 269 268 272 277 277 279 278 276 275 277 278 280 279 278 273 264
262 261 260 260 260 262 262 263 264 265 267 270 274 271 270 269 269 269 269 270 271 277 278 278 277 278 279 279 278 274 266 263
259 258 259 258 259 261 262 263 264 265 267 269 273 271 270 269 269 268 269 270 270 273 277 276 278 279 279 279 271 264 261 260

GFSFLT1_sfc_thetae_009.txt.gz
Theta_e
288 289 290 291 291 291 290 288 288 288 287 288 288 288 287 286 286 286 287 286 285 285 285 285 284 284 284 284 283 283 283 283
287 289 289 290 290 289 290 289 289 289 289 287 287 287 287 285 285 286 285 285 284 284 284 283 283 283 283 283 282 282 282 282
287 288 289 288 289 288 289 288 288 289 288 288 287 286 285 286 285 285 284 284 284 284 283 283 283 283 282 282 282 282 281 281
286 287 288 287 287 287 287 288 287 287 287 287 287 286 285 285 285 284 285 284 284 283 283 282 282 282 282 283 282 282 282 281
285 285 287 285 286 287 286 287 287 286 286 286 286 286 286 286 286 284 284 284 284 283 283 283 282 282 282 282 282 281 281 281
285 283 284 283 284 285 285 286 286 285 285 285 285 285 285 285 285 285 283 284 283 283 283 283 282 282 281 282 282 281 281 280
285 282 282 282 282 283 283 284 283 284 284 285 284 283 283 284 284 284 283 282 283 282 282 282 281 285 286 283 281 281 280 278
283 280 280 281 281 280 281 282 280 282 282 283 283 282 281 282 282 282 282 282 281 282 282 281 282 286 287 286 281 280 280 279
282 279 279 280 279 279 281 278 278 279 279 280 279 279 280 280 281 281 281 281 280 281 281 281 282 285 287 286 282 281 280 279
280 279 279 278 279 278 279 277 277 277 277 277 277 276 279 279 279 280 279 279 280 281 281 280 281 284 286 286 283 280 279 278
279 277 277 277 277 277 276 274 275 276 276 276 275 275 277 277 278 279 278 279 279 279 279 280 280 283 284 286 283 279 278 277
276 275 276 276 275 275 274 273 274 274 274 273 273 274 274 275 277 277 277 278 277 277 277 277 279 279 284 286 284 279 277 276
275 275 276 276 274 273 272 274 273 271 271 270 270 271 272 271 273 276 276 275 276 276 276 276 277 278 281 284 287 281 277 275
274 273 274 274 273 271 272 272 271 268 268 268 268 268 269 269 270 273 276 274 275 275 274 275 275 276 281 282 286 283 277 277
271 270 270 271 271 270 270 270 267 265 265 266 265 266 266 268 269 271 274 274 274 274 273 274 273 274 275 279 282 282 279 278
268 268 267 268 267 267 267 265 264 263 264 263 263 263 264 266 267 270 274 275 274 275 275 274 273 273 276 277 279 279 278 275
265 264 263 263 263 263 263 262 261 260 260 261 261 262 262 263 264 270 273 276 280 280 279 276 278 279 279 280 281 282 279 273
261 261 260 260 259 260 260 260 259 258 259 259 260 260 260 261 262 263 268 275 279 280 281 281 280 279 280 280 282 283 279 273
259 258 259 258 258 260 260 259 259 258 259 259 259 259 259 260 262 263 264 266 270 275 277 280 281 281 280 280 282 279 278 274
259 258 258 257 257 258 259 258 258 258 258 259 259 259 260 261 261 263 264 265 269 271 273 276 281 282 280 281 278 278 275 272

GFSFLT1_sfc_thetae_015.txt.gz
Theta_e
291 292 291 291 291 291 290 289 289 289 290 290 291 291 292 293 292 293 293 293 293 294 295 294 294 294 294 293 292 292 292 292
289 290 289 289 289 289 288 288 287 288 289 289 289 288 288 288 289 291 291 291 291 291 291 292 292 293 292 291 291 290 290 290
288 287 287 287 287 286 287 287 287 286 287 287 288 287 286 286 286 288 288 290 290 290 290 290 290 291 291 289 289 289 289 289
287 286 286 286 286 286 285 285 286 285 286 286 286 286 285 285 285 286 286 287 288 288 288 288 289 289 289 289 288 288 289 288
285 286 286 286 285 285 285 285 286 285 284 284 285 285 284 284 284 285 285 285 285 286 287 287 287 287 287 287 287 287 288 288
283 284 285 286 285 285 285 285 285 284 284 283 284 284 284 283 282 283 284 284 285 284 285 285 286 285 286 286 285 285 286 287
283 284 284 285 285 285 284 285 285 283 283 283 282 282 282 281 281 281 282 283 283 283 283 283 284 287 288 287 285 285 284 284
283 284 284 284 285 285 284 284 283 282 282 282 281 281 281 280 279 279 279 281 280 281 282 282 283 286 287 288 285 285 284 284
284 284 285 285 285 284 283 282 281 281 280 281 281 279 280 279 278 277 278 278 279 279 280 281 282 285 286 287 286 285 285 285
285 285 284 284 284 282 280 280 279 279 279 279 279 278 278 276 276 276 276 276 276 278 278 278 280 283 284 284 284 284 284 285
285 284 283 283 282 279 278 277 277 277 278 278 277 276 276 276 275 276 275 275 275 275 276 276 276 280 283 283 283 283 283 284
283 281 281 280 278 276 275 274 275 275 275 274 274 274 274 273 274 273 272 272 271 272 273 273 275 277 281 283 282 282 282 283
278 278 277 276 275 272 272 273 272 270 269 268 268 269 269 268 269 269 269 268 268 269 270 272 274 277 280 282 283 284 282 282
274 273 273 272 271 269 269 269 267 265 264 264 264 264 265 265 265 265 266 266 266 267 267 269 272 275 279 281 283 283 282 283
271 269 268 269 269 267 267 266 263 262 262 262 262 262 263 264 264 263 263 263 264 264 265 267 269 271 274 277 280 281 281 282
268 266 266 267 266 265 264 263 261 261 261 261 262 262 262 263 263 263 263 264 262 263 264 264 265 268 273 275 277 279 279 279
265 265 264 264 263 263 263 262 260 260 260 260 260 261 261 261 262 266 267 269 269 270 269 268 271 273 274 275 276 278 280 279
263 263 262 261 261 262 262 261 259 258 259 259 260 260 260 260 260 259 263 267 268 269 270 270 271 272 273 275 276 278 279 278
261 260 260 260 260 262 262 261 259 259 259 260 260 260 261 261 261 261 260 260 261 265 267 268 270 271 273 275 276 274 276 278
259 259 260 260 260 262 261 260 259 259 259 260 261 262 262 262 262 262 262 262 262 263 265 266 269 271 273 276 275 275 276 277

GFSFLT1_sfc_thetae_021.txt.gz
Theta_e
285 284 284 284 284 284 284 282 282 283 284 284 284 283 282 282 281 281 283 283 283 284 285 285 285 285 285 285 285 285 285 286
283 283 283 284 284 283 283 284 283 283 284 284 284 283 282 280 281 281 281 282 282 283 282 282 283 284 284 284 284 284 285 285
285 284 284 284 284 283 283 283 284 284 283 283 283 283 281 281 280 280 279 280 281 282 281 282 282 282 282 283 283 284 284 285
282 281 280 280 281 280 281 282 283 283 282 282 280 280 281 281 281 281 281 280 280 280 280 280 281 281 281 281 282 283 284 285
279 279 280 280 280 280 280 280 281 280 279 279 278 279 280 279 279 279 280 279 279 279 279 280 280 281 281 281 282 282 283 283
279 279 279 279 280 281 281 281 280 279 279 279 279 279 279 278 278 278 278 279 278 278 279 279 279 280 279 280 281 281 282 283
279 280 280 280 280 281 280 280 280 278 278 278 278 279 278 279 279 279 278 278 278 277 277 276 278 281 282 282 280 281 281 281
279 280 280 280 280 279 279 278 276 275 275 276 276 277 277 277 277 276 276 276 275 276 276 276 276 280 281 281 279 279 279 280
279 279 279 280 278 278 278 276 276 274 273 273 275 273 274 273 273 273 273 272 273 273 274 274 275 279 279 280 277 277 277 278
279 280 278 276 276 276 275 275 274 273 273 273 271 269 269 268 268 269 269 268 268 270 270 270 271 275 276 276 275 275 275 276
279 277 276 274 274 273 272 271 270 271 271 270 269 266 266 266 265 265 265 266 266 266 266 266 266 270 272 273 271 270 272 273
276 275 273 273 272 270 270 268 269 269 268 266 266 264 263 263 264 263 262 263 262 263 263 264 265 266 270 272 271 270 270 271
274 273 272 272 269 268 267 269 266 265 264 263 262 262 263 261 261 261 261 260 260 260 261 263 265 267 269 271 272 272 268 268
270 270 270 267 267 265 266 265 264 259 258 259 260 261 261 260 259 260 260 260 260 261 260 261 264 264 268 270 271 271 268 269
266 264 263 264 266 263 263 263 256 255 259 261 260 259 260 260 260 259 259 259 259 260 260 261 263 265 266 265 265 268 268 269
265 264 263 264 262 260 262 258 257 258 260 260 260 259 259 260 259 260 262 263 263 264 265 265 265 267 271 272 271 270 270 268
263 262 260 258 258 258 255 254 255 258 260 259 259 259 259 259 259 264 267 268 270 271 270 268 272 273 274 274 275 275 276 270
262 261 257 256 257 256 255 252 253 257 258 259 259 258 258 258 258 258 262 267 268 269 270 271 272 274 274 275 275 276 275 269
259 256 253 253 254 256 254 252 252 254 258 258 258 258 258 258 259 259 259 259 261 266 268 270 271 272 274 274 274 269 270 268
254 255 253 252 254 254 253 253 252 256 258 257 257 258 259 259 259 259 260 260 260 262 265 265 269 271 270 270 266 266 266 268

GFSFLT1_sfc_thetae_024.txt.gz
Theta_e
283 283 283 283 282 282 281 280 281 281 282 282 282 281 281 280 279 279 279 280 280 281 281 282 281 281 281 282 283 283 283 285
282 282 282 281 281 281 281 281 281 281 281 281 281 282 281 280 280 280 279 279 280 280 280 280 280 280 280 280 280 281 282 282
281 281 281 281 281 281 281 281 281 281 281 280 281 280 279 280 280 279 280 281 279 279 279 279 279 280 279 279 279 279 280 281
281 280 280 279 280 279 280 281 281 281 280 279 279 278 278 279 279 279 279 279 279 279 278 278 278 278 279 279 279 280 280 281
279 278 279 278 279 279 279 279 280 279 279 278 278 278 277 278 277 277 278 277 278 278 278 278 278 278 278 278 278 279 280 281
279 278 278 278 279 280 280 280 280 279 278 278 278 278 277 277 277 277 278 277 277 277 277 277 277 278 277 278 278 278 278 279
279 279 279 278 279 279 279 279 279 277 276 277 276 276 276 276 276 276 275 274 274 274 274 274 276 279 280 280 278 278 277 277
278 279 279 278 279 278 278 277 275 274 273 273 274 273 274 273 272 272 271 271 271 271 271 271 272 276 277 278 276 276 276 276
278 278 278 278 277 277 276 275 274 272 270 271 272 270 270 270 269 269 269 268 268 268 268 268 269 273 274 274 272 272 272 273
278 278 277 276 275 275 274 274 273 272 272 270 269 266 267 265 266 266 266 265 265 266 265 265 265 270 271 272 270 270 270 271
279 277 275 274 274 273 272 270 269 270 270 269 267 263 264 264 264 264 263 264 265 264 264 264 263 267 270 271 268 267 268 270
277 275 274 273 272 270 269 268 268 268 267 265 265 263 263 262 263 262 261 262 261 261 262 262 263 264 269 271 269 268 267 267
274 273 272 271 269 268 267 268 265 264 263 262 260 261 262 259 260 260 259 259 259 260 261 262 264 266 268 271 272 272 269 268
272 271 270 268 267 265 265 264 263 258 256 256 258 260 261 259 259 258 259 258 259 259 259 261 263 264 269 271 272 272 269 269
267 266 266 266 267 263 262 262 254 251 256 259 258 259 259 260 260 259 258 258 259 259 260 262 264 266 268 268 268 271 271 271
266 266 265 265 264 261 261 257 255 255 258 258 258 257 259 260 259 260 262 263 263 264 266 265 265 267 272 273 271 272 273 274
264 263 262 261 261 260 256 253 252 256 258 258 259 259 259 259 259 264 267 268 270 271 270 268 271 273 274 274 275 276 276 273
263 262 260 259 259 255 254 252 251 252 257 257 258 258 257 258 257 257 261 266 267 268 270 270 271 272 272 273 274 273 272 267
260 259 256 256 256 255 251 249 249 250 255 255 256 256 257 257 258 258 257 257 259 264 267 268 269 270 272 271 269 261 263 263
254 256 256 255 256 254 251 251 249 252 254 253 256 257 257 257 257 257 258 258 258 260 262 263 267 269 267 267 260 260 260 261

GFSFLT1_sfc_thetae_027.txt.gz
Theta_e
282 282 282 281 280 280 280 279 280 280 280 280 280 280 279 278 278 278 278 278 279 278 278 279 279 280 280 279 279 279 279 280
281 282 281 281 280 280 280 280 280 280 280 279 279 279 279 278 278 278 278 278 279 279 279 278 278 278 278 278 278 278 278 279
281 280 280 280 280 280 281 280 280 280 279 280 279 278 278 278 278 278 278 278 278 279 278 278 278 278 277 277 277 277 277 278
280 279 280 279 280 279 280 280 280 280 279 279 278 277 277 277 277 278 277 277 277 278 277 277 277 277 277 277 277 277 277 278
279 279 279 278 278 278 278 279 280 279 278 278 277 277 277 277 276 276 276 276 275 275 275 275 276 276 276 276 276 277 277 278
281 279 277 277 278 278 278 278 278 278 278 277 277 276 276 275 275 274 274 274 273 273 273 273 274 275 275 275 275 276 276 277
279 279 278 278 278 278 278 279 278 276 275 275 275 275 274 273 272 272 272 271 271 271 270 270 272 274 276 275 274 274 274 274
279 279 279 278 279 277 277 277 274 273 271 271 272 271 271 270 270 270 269 269 268 268 268 268 268 272 274 274 272 271 271 271
278 278 278 278 277 277 276 274 273 271 270 270 270 268 268 268 267 267 267 266 266 266 266 266 267 271 272 273 271 270 270 270
279 278 277 277 276 275 274 273 272 271 271 270 268 265 266 263 264 265 265 264 264 265 264 263 264 269 271 271 269 269 268 269
278 277 276 275 275 273 272 270 269 271 270 268 267 262 262 263 263 263 262 264 264 264 263 263 262 267 269 270 268 267 268 269
277 276 275 273 272 271 270 268 269 268 267 265 265 262 261 261 262 261 260 262 260 261 261 261 263 263 269 271 269 268 268 268
276 274 272 272 270 269 268 268 266 265 263 262 258 259 261 255 258 258 258 258 258 258 259 261 263 266 268 271 272 273 269 268
274 272 271 269 268 267 267 266 263 261 256 254 257 259 259 255 258 258 256 256 258 259 259 260 263 264 269 271 272 273 271 271
270 269 267 265 267 265 265 264 258 258 256 258 256 257 257 260 260 258 257 257 259 259 259 262 265 267 268 268 269 272 273 273
270 269 266 265 264 262 263 260 257 258 259 257 256 256 257 259 259 260 261 262 263 265 266 265 265 267 272 273 271 272 273 274
266 265 263 262 261 261 258 257 257 258 259 257 257 257 258 258 258 263 267 269 270 271 270 268 271 272 273 274 275 275 274 268
264 262 260 259 260 260 256 255 253 255 257 256 257 257 256 256 256 255 260 266 266 268 269 270 271 271 272 273 272 269 268 258
261 258 256 256 257 259 252 252 253 254 255 253 255 254 253 254 255 256 255 255 257 262 265 268 269 271 270 270 265 258 260 258
256 253 254 253 257 255 252 253 252 253 255 255 252 253 255 255 255 255 256 256 256 257 261 262 266 268 267 266 256 257 257 258

GFSFLT1_sfc_thetae_030.txt.gz
Theta_e
282 281 280 280 279 278 279 279 279 279 279 278 278 278 277 277 277 277 278 278 278 278 277 277 277 277 277 276 277 276 277 278
282 282 281 280 279 278 278 278 278 279 278 279 278 277 278 277 277 277 277 277 278 278 277 277 277 276 276 275 276 276 276 276
282 281 280 280 280 279 279 279 279 279 278 279 278 278 277 277 277 277 277 277 277 277 277 276 276 276 275 275 275 275 275 276
281 279 279 278 279 279 279 279 280 279 278 278 278 277 276 276 277 277 276 276 275 275 274 274 274 274 275 275 275 276 276 276
279 278 278 278 279 278 278 278 279 279 278 277 277 276 276 276 275 275 274 273 273 273 273 273 273 273 274 274 274 274 274 275
280 279 279 278 278 278 277 277 278 277 277 277 276 275 275 274 273 272 272 272 272 271 271 271 271 273 273 273 273 273 273 273
281 281 280 278 278 278 277 277 277 277 276 275 274 274 272 272 271 271 271 270 270 269 269 268 270 273 275 275 273 272 271 270
280 280 280 279 279 277 277 277 275 274 271 271 271 271 270 270 269 269 268 268 267 267 267 267 267 272 274 274 272 271 270 270
280 278 278 278 277 277 277 275 274 272 270 270 270 268 268 267 266 266 266 266 265 265 265 266 267 271 272 273 271 270 269 269
278 278 276 277 277 276 274 274 273 271 271 269 268 265 266 263 264 264 264 264 263 265 263 263 263 269 271 271 270 269 269 269
278 278 276 276 276 274 273 271 270 271 271 269 267 262 262 264 262 262 261 264 264 264 263 262 262 267 270 271 269 267 268 269
277 277 276 275 273 272 271 270 269 269 267 266 265 262 261 260 261 259 259 261 259 260 261 261 262 263 269 272 271 269 269 269
277 276 275 273 273 271 270 269 267 265 265 264 262 260 262 254 256 255 256 255 256 257 259 261 263 266 269 272 273 274 270 270
276 275 272 271 271 270 268 266 264 262 262 259 259 261 261 256 257 256 254 254 257 259 259 261 263 264 270 272 273 274 272 272
270 270 269 267 269 266 265 264 260 257 260 261 260 260 260 261 260 255 255 256 258 258 259 261 265 267 267 268 271 273 272 274
271 272 271 267 265 263 263 261 258 258 260 261 260 259 259 259 259 259 260 260 258 261 265 265 264 266 272 273 271 272 273 270
269 269 266 265 263 260 259 259 258 259 261 261 260 259 259 259 258 263 267 269 271 272 270 267 271 272 273 274 274 273 271 262
266 264 262 262 261 258 256 256 256 256 260 259 259 258 258 257 256 255 259 265 266 268 269 269 271 271 272 272 272 268 266 254
264 262 261 258 258 257 255 254 255 256 259 257 257 256 255 255 255 255 254 253 255 261 264 267 268 270 270 270 264 257 257 250
262 259 257 255 257 254 253 255 255 256 256 256 256 255 255 255 255 254 254 254 254 256 259 260 265 267 266 265 251 254 256 257

GFSFLT1_sfc_thetae_033.txt.gz
Theta_e
283 282 281 280 280 281 281 281 280 280 280 280 279 279 280 280 279 279 279 280 279 279 279 279 279 279 278 278 278 278 279 279
284 283 282 281 280 280 280 280 280 280 280 280 280 280 280 279 279 279 279 279 278 278 278 278 277 277 277 277 277 277 277 278
284 283 281 281 280 279 279 280 280 280 280 280 280 280 279 278 279 279 278 278 277 276 276 276 276 276 275 275 276 276 276 276
283 282 282 280 280 279 280 280 281 280 280 279 279 279 278 278 278 277 276 276 275 275 274 274 274 274 274 275 275 275 275 275
282 282 281 280 280 280 280 280 280 280 279 279 279 278 277 277 276 275 274 274 273 273 273 273 273 273 274 274 274 274 275 274
283 281 280 279 279 280 280 280 280 279 279 279 279 277 276 275 274 273 273 272 272 272 271 271 271 273 274 274 274 273 273 273
283 282 280 280 280 280 279 279 279 279 279 278 277 275 274 273 272 272 271 270 270 270 269 269 270 273 275 275 273 273 272 271
283 282 282 280 281 280 279 278 277 276 275 274 274 273 272 271 270 270 269 269 268 268 268 267 268 272 275 275 273 272 271 270
284 282 281 281 279 279 278 277 276 275 273 272 272 270 269 269 268 268 267 267 266 266 266 267 267 272 273 274 272 271 270 270
282 282 279 279 279 277 276 276 275 274 273 272 271 268 268 266 266 266 266 265 264 266 265 264 264 269 272 272 271 270 269 270
279 278 277 277 277 275 274 273 274 274 273 271 269 265 265 266 265 265 264 265 265 264 264 263 263 267 271 272 271 269 270 271
278 278 278 276 274 274 273 273 273 271 270 268 267 265 264 263 264 262 261 263 260 261 262 262 263 264 270 272 272 271 271 272
277 277 277 275 274 273 272 272 270 268 267 265 263 265 263 259 260 259 259 259 258 258 260 263 264 267 270 273 274 275 272 271
276 276 275 273 273 273 272 269 267 265 263 261 261 262 261 258 259 261 259 258 259 261 261 262 265 266 270 272 273 275 273 274
272 272 273 270 271 273 268 267 263 261 261 261 260 261 260 263 262 260 259 259 259 259 260 262 263 266 268 269 271 274 274 272
273 273 274 269 268 266 266 264 262 261 262 261 260 260 261 262 262 262 262 261 257 259 261 261 265 266 272 274 273 273 272 265
271 270 269 265 264 263 262 263 262 261 261 261 261 261 261 261 261 265 268 269 271 272 272 269 271 272 273 274 274 273 271 261
270 267 264 263 263 262 261 261 261 259 261 261 261 261 260 259 258 258 260 265 267 269 271 271 270 272 272 273 272 268 265 257
262 260 259 260 261 261 259 257 256 256 259 259 259 259 258 258 258 257 255 255 256 261 264 267 269 269 271 270 265 257 257 255
259 257 258 257 255 253 254 255 253 255 256 257 256 256 257 257 257 256 255 255 254 255 259 261 264 267 267 265 256 254 255 256

GFSFLT1_sfc_thetae_036.txt.gz
Theta_e
288 287 287 287 287 286 286 286 286 286 286 285 285 285 285 285 284 284 284 283 283 283 282 282 282 282 282 282 282 282 282 282
289 288 287 287 286 286 286 285 285 286 286 285 285 285 285 285 284 284 283 282 281 281 281 280 280 280 280 280 280 280 280 281
290 289 286 285 285 285 286 285 286 286 285 285 285 285 284 284 283 283 282 281 280 279 279 279 279 279 278 278 279 278 278 278
290 289 287 286 285 285 285 285 286 285 285 285 285 284 284 283 282 281 280 279 279 278 278 277 277 277 278 278 278 278 278 278
290 290 290 288 286 285 285 285 285 285 285 284 285 284 283 282 281 280 279 278 277 277 276 276 276 276 277 277 277 278 278 277
290 291 290 289 287 286 286 285 285 284 284 284 285 284 282 281 279 278 277 277 276 276 275 275 275 275 276 277 277 277 276 276
290 290 290 289 288 287 286 285 285 284 284 285 284 282 280 278 277 276 275 274 274 273 273 272 273 273 275 276 276 275 275 274
290 290 290 289 288 287 286 286 284 283 283 282 282 279 278 277 275 274 274 273 273 272 272 272 272 272 275 275 275 274 274 273
290 290 289 288 287 287 286 284 282 283 282 281 279 278 276 274 274 273 273 272 272 272 271 271 271 272 273 274 274 274 273 273
291 290 288 286 286 283 282 282 282 281 281 279 278 276 274 273 273 273 272 271 271 271 270 269 269 271 273 273 273 273 273 273
286 286 286 285 283 281 281 280 280 281 280 279 277 275 273 273 272 272 271 270 270 270 269 268 267 269 271 273 273 272 273 274
283 283 283 282 280 280 280 279 281 280 278 276 275 273 273 271 271 270 269 268 267 267 268 267 267 268 271 273 273 273 273 274
282 281 282 281 280 280 279 281 278 277 275 273 271 272 270 268 268 267 267 266 266 266 267 269 268 269 271 273 274 275 274 273
281 280 280 279 279 279 281 277 274 273 272 270 269 269 268 267 267 267 267 267 268 267 268 268 269 270 271 272 274 275 274 275
278 278 278 278 277 279 276 274 271 271 269 268 267 267 266 268 268 268 268 268 268 267 267 268 269 270 271 272 273 274 275 274
278 278 279 278 277 276 273 271 271 270 269 269 268 266 268 267 269 268 269 268 267 267 267 268 269 270 272 274 274 275 275 271
276 276 278 276 275 271 270 270 270 269 269 269 269 268 268 268 268 269 270 271 272 273 273 273 272 274 273 274 275 274 272 267
276 275 274 272 271 268 267 268 268 271 269 268 267 268 267 266 266 266 267 268 269 270 271 272 273 273 273 273 274 269 268 263
271 268 268 267 266 266 266 266 266 267 265 268 268 267 267 266 265 264 263 263 264 265 265 267 269 271 271 272 270 264 263 261
265 264 265 264 262 262 262 262 263 264 265 265 265 264 264 263 263 262 262 262 261 262 263 263 265 267 269 268 263 261 260 261

GFSFLT1_sfc_thetae_042.txt.gz
Theta_e
287 286 286 285 285 285 285 284 284 284 284 284 284 284 283 283 282 281 280 281 280 280 280 279 279 278 278 278 278 277 277 278
287 287 286 286 285 285 284 284 284 284 284 283 283 283 283 282 281 281 280 280 279 279 279 278 278 277 277 277 277 276 276 276
288 287 285 285 285 284 284 284 283 284 283 283 283 282 281 281 281 280 279 279 278 278 278 278 277 277 276 276 276 276 276 276
288 286 285 285 285 284 284 284 284 283 283 282 281 281 281 280 280 280 279 278 278 277 277 277 277 276 276 276 276 276 276 276
288 287 286 285 285 284 284 284 283 283 282 281 281 281 280 280 279 279 278 277 277 277 276 276 276 276 276 276 276 276 276 277
288 287 286 285 285 284 284 284 284 283 282 282 281 281 281 280 279 278 278 277 277 276 275 275 275 276 275 276 275 275 275 275
290 288 287 285 285 285 284 283 284 282 282 281 282 281 280 279 278 277 277 276 275 275 274 273 275 278 277 277 275 276 275 274
290 289 289 287 286 285 284 283 282 281 280 281 282 281 279 278 277 276 275 275 274 273 273 273 273 278 278 277 276 275 274 274
290 290 290 289 287 286 284 282 282 282 281 281 281 279 277 277 276 275 274 273 273 272 273 272 273 278 278 277 275 274 274 274
292 292 291 289 288 286 284 282 282 281 281 281 280 278 277 276 274 274 273 272 271 272 270 270 270 277 277 276 273 273 273 275
289 288 288 286 286 284 282 282 281 281 282 281 280 279 277 276 273 272 271 273 273 272 270 269 267 275 277 276 273 267 272 273
285 285 284 283 282 281 280 281 281 279 279 279 279 279 277 273 271 272 269 272 269 269 268 268 268 268 275 277 274 271 270 271
282 282 282 281 281 279 280 280 278 278 277 276 275 275 274 272 268 269 269 266 265 264 265 268 269 271 273 276 277 276 271 270
280 279 279 278 279 279 278 277 276 275 273 269 270 271 271 270 268 266 266 267 266 267 266 267 270 269 275 276 276 277 275 274
277 276 275 274 276 274 276 274 273 270 270 269 270 268 268 269 268 268 266 266 266 267 267 265 266 267 269 270 270 273 274 274
276 275 275 273 272 271 273 273 272 271 269 269 268 267 266 267 268 268 266 268 263 264 264 263 264 267 271 270 266 267 270 271
273 272 271 271 271 270 271 271 271 269 269 268 267 265 266 265 264 274 274 275 276 277 269 263 272 274 276 277 277 278 278 267
274 272 271 270 268 264 265 267 266 266 267 267 267 266 264 263 263 262 267 276 276 277 277 277 277 277 278 278 278 278 277 260
270 267 267 265 262 260 260 263 263 263 265 265 263 263 262 261 262 261 260 258 260 268 271 272 273 274 274 275 275 271 271 255
264 263 263 261 257 257 258 261 261 263 262 262 262 260 261 260 259 258 258 257 256 256 263 265 270 271 272 273 270 268 262 259

GFSFLT1_sfc_thetae_045.txt.gz
Theta_e
285 285 286 286 284 284 285 285 284 284 285 284 283 284 283 283 281 281 280 280 279 279 279 278 278 278 278 277 277 276 276 277
286 285 285 285 284 284 284 283 283 284 283 283 283 283 282 282 281 280 280 279 279 279 278 278 277 277 276 276 276 276 276 276
286 285 285 284 283 283 284 283 283 283 283 282 282 282 281 281 280 279 279 279 278 278 278 277 277 277 276 276 276 275 276 276
286 285 284 284 284 284 283 283 283 283 282 281 281 281 280 280 279 279 278 278 277 277 277 277 276 276 276 276 276 276 276 276
286 285 285 284 284 283 283 283 283 282 282 281 280 280 280 279 279 278 278 277 277 276 276 276 276 276 276 276 276 276 276 276
287 286 285 284 284 284 283 283 283 282 282 281 281 280 279 279 279 278 278 277 276 276 276 275 275 276 275 275 275 275 275 275
288 287 285 285 284 284 284 283 283 282 282 282 281 281 280 280 279 278 277 277 276 275 274 274 276 279 280 277 275 276 275 274
288 287 286 285 285 284 284 284 283 282 282 282 282 281 280 280 279 277 277 275 274 274 274 273 274 280 280 280 276 275 274 274
290 289 287 286 285 286 284 283 283 282 282 282 282 281 279 278 278 277 276 274 274 273 273 273 273 279 280 280 276 274 274 274
291 290 289 286 285 285 283 283 282 282 281 281 282 281 279 278 277 276 275 273 273 272 271 271 271 279 280 279 274 274 273 274
290 289 289 288 286 284 283 281 281 282 282 282 282 281 279 279 276 273 274 274 273 273 271 271 269 277 279 279 274 269 272 272
289 290 289 286 285 283 281 281 282 281 281 280 280 280 279 277 274 271 272 272 270 271 271 269 270 269 278 279 275 272 269 270
285 284 282 283 284 281 281 281 279 278 278 277 277 277 275 274 269 270 271 271 270 268 267 268 269 272 275 278 279 278 270 269
283 281 280 278 282 280 278 277 276 275 274 273 271 273 272 271 270 269 270 270 269 268 268 267 269 269 275 277 278 278 276 274
278 277 275 273 275 274 275 274 273 272 269 269 271 269 268 272 271 270 269 268 267 266 266 263 266 268 268 270 270 274 275 275
276 274 274 272 270 269 271 272 271 270 269 269 268 268 267 267 266 268 265 268 262 261 262 261 262 266 271 268 264 264 269 269
271 272 269 270 268 268 270 272 272 270 269 268 267 265 266 265 264 273 273 275 276 276 268 265 272 275 276 277 277 278 278 273
273 272 272 270 266 262 264 268 268 268 267 266 266 265 264 263 263 262 266 276 278 278 278 278 278 278 278 279 279 279 278 274
271 268 268 265 261 259 259 262 261 262 266 266 265 265 263 262 261 261 260 260 262 269 270 272 273 274 275 275 275 270 270 266
266 264 263 261 257 257 260 264 263 264 263 262 261 261 261 261 260 259 259 260 258 255 262 263 268 269 270 270 257 256 259 261